ITY63R LIRF-KIAH

Flight info

Callsign ITY63R
Flight time N/A
Altitude 40000
Route PODOX DCT TOBGA DCT DOBIM DCT PIGOS DCT BODRU DCT KOTIT DCT ETREK DCT NOQAS DCT LERGA DCT FOUCO/N0478F340 DCT MANAK UY110 TIRAV UT183 BAGAD DCT AMPOP DCT LULOX DCT LIMRI/M083F350 DCT 53N020W 53N030W 53N040W 52N050W DCT TUDEP/N0487F360 DCT YNA DCT YYY DCT YBG DCT YOW DCT LETAK DCT PEVNI Q806 GGUCE/N0471F380 DCT RINTE DCT TIIDE DCT LITTR DCT CVE DRLLR5
Aircraft A339/H-SADE1E2E3GHIJ3J5M1P2RWXY/LB2D1

Departure

Time 2026-05-05 07:13
Airport Rome–Fiumicino Leonardo da Vinci International Airport (LIRF)

Arrival

Time N/A
Airport George Bush Intercontinental Airport (KIAH)
Time Latitude Longitude Altitude Speed Heading
2026-05-05 06:42 41.79815 12.24576 23 ft 0 kts 130°
2026-05-05 06:55 41.79816 12.24575 23 ft 1 kts 130°
2026-05-05 06:55 41.79825 12.24560 23 ft 2 kts 130°
2026-05-05 06:55 41.79835 12.24544 23 ft 2 kts 130°
2026-05-05 06:56 41.79845 12.24529 23 ft 2 kts 137°
2026-05-05 06:56 41.79858 12.24518 23 ft 2 kts 157°
2026-05-05 06:56 41.79872 12.24512 23 ft 2 kts 173°
2026-05-05 06:56 41.79887 12.24512 23 ft 2 kts 189°
2026-05-05 06:57 41.79901 12.24517 22 ft 2 kts 205°
2026-05-05 06:57 41.79915 12.24527 22 ft 2 kts 221°
2026-05-05 06:57 41.79924 12.24542 22 ft 2 kts 237°
2026-05-05 06:57 41.79929 12.24554 23 ft 0 kts 248°
2026-05-05 06:58 41.79930 12.24558 22 ft 0 kts 248°
2026-05-05 07:03 41.79929 12.24552 22 ft 2 kts 248°
2026-05-05 07:03 41.79920 12.24521 22 ft 5 kts 248°
2026-05-05 07:03 41.79907 12.24467 22 ft 6 kts 261°
2026-05-05 07:04 41.79921 12.24399 22 ft 9 kts 295°
2026-05-05 07:04 41.79941 12.24305 22 ft 11 kts 266°
2026-05-05 07:04 41.79924 12.24187 23 ft 14 kts 261°
2026-05-05 07:04 41.79912 12.24045 22 ft 16 kts 255°
2026-05-05 07:05 41.79874 12.23895 22 ft 17 kts 251°
2026-05-05 07:05 41.79833 12.23748 22 ft 13 kts 252°
2026-05-05 07:05 41.79850 12.23688 22 ft 6 kts 332°
2026-05-05 07:05 41.79889 12.23663 22 ft 5 kts 339°
2026-05-05 07:06 41.79926 12.23645 22 ft 3 kts 342°
2026-05-05 07:06 41.79929 12.23644 22 ft 0 kts 341°
2026-05-05 07:06 41.79936 12.23641 22 ft 2 kts 341°
2026-05-05 07:06 41.79962 12.23630 22 ft 5 kts 342°
2026-05-05 07:07 41.80006 12.23612 22 ft 7 kts 342°
2026-05-05 07:07 41.80067 12.23587 22 ft 10 kts 343°
2026-05-05 07:07 41.80141 12.23556 22 ft 12 kts 342°
2026-05-05 07:07 41.80226 12.23520 22 ft 13 kts 342°
2026-05-05 07:08 41.80316 12.23481 22 ft 13 kts 342°
2026-05-05 07:08 41.80409 12.23441 22 ft 14 kts 342°
2026-05-05 07:08 41.80504 12.23401 22 ft 14 kts 342°
2026-05-05 07:08 41.80599 12.23362 22 ft 14 kts 343°
2026-05-05 07:09 41.80693 12.23323 22 ft 14 kts 342°
2026-05-05 07:09 41.80790 12.23283 22 ft 14 kts 342°
2026-05-05 07:09 41.80887 12.23243 22 ft 14 kts 343°
2026-05-05 07:09 41.80983 12.23205 22 ft 14 kts 343°
2026-05-05 07:10 41.81081 12.23164 22 ft 14 kts 342°
2026-05-05 07:10 41.81178 12.23122 23 ft 14 kts 342°
2026-05-05 07:10 41.81276 12.23081 23 ft 14 kts 343°
2026-05-05 07:10 41.81371 12.23033 23 ft 14 kts 326°
2026-05-05 07:11 41.81432 12.22930 22 ft 14 kts 298°
2026-05-05 07:11 41.81480 12.22812 22 ft 14 kts 298°
2026-05-05 07:11 41.81483 12.22701 22 ft 9 kts 236°
2026-05-05 07:11 41.81455 12.22688 22 ft 0 kts 167°
2026-05-05 07:12 41.81426 12.22697 22 ft 19 kts 166°
2026-05-05 07:12 41.81089 12.22836 22 ft 79 kts 161°
2026-05-05 07:12 41.80384 12.23133 22 ft 131 kts 162°
2026-05-05 07:12 41.79378 12.23559 23 ft 173 kts 163°
2026-05-05 07:13 41.78165 12.24032 438 ft 180 kts 162°
2026-05-05 07:13 41.76971 12.24493 1027 ft 178 kts 162°
2026-05-05 07:13 41.75731 12.24540 1558 ft 185 kts 199°
2026-05-05 07:13 41.74721 12.23470 2126 ft 187 kts 237°
2026-05-05 07:14 41.74432 12.21764 2542 ft 195 kts 275°
2026-05-05 07:14 41.74899 12.19965 2771 ft 210 kts 296°
2026-05-05 07:14 41.75711 12.18298 3080 ft 218 kts 303°
2026-05-05 07:14 41.76687 12.16607 3308 ft 232 kts 303°
2026-05-05 07:15 41.77655 12.14776 3620 ft 241 kts 301°
2026-05-05 07:15 41.78619 12.12827 3975 ft 251 kts 299°
2026-05-05 07:15 41.79575 12.10767 4245 ft 263 kts 294°
2026-05-05 07:15 41.80042 12.08428 4601 ft 264 kts 266°
2026-05-05 07:16 41.79757 12.06005 5178 ft 262 kts 256°
2026-05-05 07:16 41.79364 12.03614 5885 ft 257 kts 258°
2026-05-05 07:16 41.79052 12.01227 6525 ft 255 kts 261°
2026-05-05 07:16 41.78803 11.98810 7069 ft 256 kts 262°
2026-05-05 07:17 41.78589 11.96335 7584 ft 258 kts 263°
2026-05-05 07:17 41.78401 11.93895 8083 ft 260 kts 264°
2026-05-05 07:17 41.78219 11.91389 8572 ft 262 kts 264°
2026-05-05 07:17 41.78044 11.88898 9060 ft 264 kts 264°
2026-05-05 07:18 41.77866 11.86330 9558 ft 265 kts 264°
2026-05-05 07:18 41.77690 11.83789 10031 ft 267 kts 264°
2026-05-05 07:18 41.77511 11.81207 10397 ft 274 kts 264°
2026-05-05 07:18 41.77334 11.78555 10619 ft 285 kts 265°
2026-05-05 07:19 41.77258 11.75733 10845 ft 297 kts 270°
2026-05-05 07:19 41.77343 11.72794 11069 ft 309 kts 274°
2026-05-05 07:19 41.77611 11.69760 11266 ft 321 kts 278°
2026-05-05 07:19 41.78009 11.66685 11477 ft 331 kts 278°
2026-05-05 07:20 41.78305 11.63485 11681 ft 342 kts 274°
2026-05-05 07:20 41.78524 11.60175 11884 ft 352 kts 274°
2026-05-05 07:20 41.78734 11.56776 12167 ft 359 kts 274°
2026-05-05 07:20 41.78955 11.53402 12638 ft 361 kts 275°
2026-05-05 07:21 41.79231 11.50019 13089 ft 363 kts 275°
2026-05-05 07:21 41.79522 11.46555 13547 ft 365 kts 275°
2026-05-05 07:21 41.79808 11.43090 13971 ft 367 kts 275°
2026-05-05 07:21 41.80092 11.39594 14378 ft 370 kts 275°
2026-05-05 07:22 41.80575 11.36104 14771 ft 374 kts 285°
2026-05-05 07:22 41.81606 11.32893 15135 ft 382 kts 296°
2026-05-05 07:22 41.83153 11.29951 15568 ft 389 kts 306°
2026-05-05 07:22 41.84872 11.27189 16053 ft 391 kts 306°
2026-05-05 07:23 41.86650 11.24356 16488 ft 394 kts 306°
2026-05-05 07:23 41.88440 11.21499 16922 ft 397 kts 306°
2026-05-05 07:23 41.90198 11.18684 17353 ft 400 kts 306°
2026-05-05 07:23 41.91984 11.15817 17786 ft 402 kts 306°
2026-05-05 07:24 41.93788 11.12912 18200 ft 405 kts 306°
2026-05-05 07:24 41.95601 11.09991 18622 ft 407 kts 306°
2026-05-05 07:24 41.97404 11.07081 19071 ft 409 kts 306°
2026-05-05 07:24 41.99221 11.04149 19502 ft 411 kts 306°
2026-05-05 07:25 42.01069 11.01160 19902 ft 414 kts 306°
2026-05-05 07:25 42.02904 10.98188 20321 ft 415 kts 306°